Regional Weather Roundup
Issued by NWS

Home | Current Version | Previous Version | Text Only | Print | Product List | Glossary On
Versions: 1 2 3 4 5 6 7 8 9 10 11 12 13 14 15 16 17 18 19 20 21 22 23 24 25 26 27 28 29 30 31 32 33 34 35 36 37 38 39 40 41 42 43 44 45 46 47 48 49 50
000
ASUS43 KMKX 300721
RWRWI

WISCONSIN REGIONAL WEATHER ROUNDUP
NATIONAL WEATHER SERVICE MILWAUKEE/SULLIVAN WI
200 AM CDT SUN AUG 30 2015

NOTE: "FAIR" INDICATES FEW OR NO CLOUDS BELOW 12,000 FEET WITH NO
SIGNIFICANT WEATHER AND/OR OBSTRUCTIONS TO VISIBILITY.

WIZ001-002-006>008-014>016-023>028-300800-
NORTHWEST WISCONSIN

CITY           SKY/WX    TMP DP  RH WIND       PRES   REMARKS
SUPERIOR ARPT  CLEAR     59  59  99 S5        29.96S
ASHLAND        CLEAR     62  62 100 S5        29.98F
HAYWARD        CLEAR     60  58  92 S5        30.01F
SIREN          CLEAR     62  60  96 SE3       30.00S
CUMBERLAND     FOG       55  55 100 S5        30.01F VSB 1/4
RICE LAKE      CLEAR     59  57  95 SE5       30.04S FOG
CHETEK         CLEAR    N/A N/A N/A SE3       30.03F
LADYSMITH      CLOUDY    60  59  96 CALM      30.05S
EAU CLAIRE     CLEAR     60  58  92 CALM      30.02F
MENOMONIE      FOG       57  57  99 E3        30.03F VSB<1/4
NEW RICHMOND   CLEAR     61  61  98 SE5       30.01F
OSCEOLA        CLEAR     62  62 100 CALM      30.03S
$$

WIZ003>005-009-010-017-018-300800-
NORTH CENTRAL WISCONSIN

CITY           SKY/WX    TMP DP  RH WIND       PRES   REMARKS
MANITOWISH WTR CLOUDY    59  59 100 SW6       30.04S FOG
ARBOR VITAE    CLOUDY    60  58  95 SW6       30.04F FOG
WOODRUFF       CLOUDY    60  58  95 SW6       30.04F FOG
RHINELANDER    MOCLDY    59  58  96 SW7       30.06F FOG
EAGLE RIVER    CLOUDY    60  60 100 SW7       30.04F FOG
LAND O LAKES   CLOUDY    61  61  99 SW5       30.05F FOG
PHILLIPS       CLOUDY    57  57 100 SW5       30.05S FOG
TOMAHAWK       FOG       54  53  97 CALM      30.06F VSB 3/4
MEDFORD        FOG       53  53 100 CALM      30.06S VSB 1/4
MERRILL        FOG       50  50 100 CALM      30.06F VSB 1/4
$$

WIZ029-030-035-036-043>047-300800-
CENTRAL WISCONSIN

CITY           SKY/WX    TMP DP  RH WIND       PRES   REMARKS
WAUSAU         FOG       54  54 100 E3        30.05S VSB 1/2
MOSINEE        FOG       52  52 100 CALM      30.07S VSB 1/4
MARSHFIELD     FOG       55  52  89 CALM      30.06S VSB 1/4
STEVENS POINT  CLOUDY    55  55  99 CALM      30.06F
WAUPACA        FOG       56  55  97 CALM      30.05F VSB 1/4
WAUTOMA        FOG       58  58 100 CALM      30.06S VSB<1/4
WISC RAPIDS    FOG       59  57  93 CALM      30.06F VSB 1/4
CAMP DOUGLAS   CLOUDY    63  63 100 CALM      30.05S
$$

WIZ011>013-019>022-031-037>040-048>050-300800-
NORTHEAST WISCONSIN

CITY           SKY/WX    TMP DP  RH WIND       PRES   REMARKS
ANTIGO         FOG       51  51 100 CALM      30.07S VSB 1/2
SHAWANO        FOG       57  55  95 CALM      30.05F VSB 1/4
OCONTO         CLOUDY    54  54 100 CALM      30.04S VSB 1/4
STURGEON BAY   CLEAR     57  55  94 CALM      30.06S
GREEN BAY      FOG       57  56  96 CALM      30.05F VSB 1/4
MANITOWOC      FOG       55  55 100 MISG      30.05F VSB 1/4
APPLETON       PTCLDY    59  59 100 CALM      30.04S FOG
CLINTONVILLE   FOG       54  54 100 CALM      30.05F VSB 1/2
OSHKOSH        FOG       60  59  96 W3        30.04F VSB 1/4
$$

WIZ032>034-041-042-053>061-300800-
SOUTHWEST WISCONSIN

CITY           SKY/WX    TMP DP  RH WIND       PRES   REMARKS
LA CROSSE      CLEAR     60  59  96 SE3       30.03F
SPARTA         CLOUDY    61  59  92 CALM      30.06S
VIROQUA        MOCLDY    61  61  99 CALM      30.05F
BOSCOBEL       CLOUDY    65  63  93 CALM      30.05F
PRAIRIE DU CHI CLEAR     63  61  94 CALM      30.04S
PLATTEVILLE    CLOUDY    67  61  81 CALM      30.05F
$$

WIZ056-057-062-063-064-067-068-300800-
SOUTH CENTRAL WISCONSIN

CITY           SKY/WX    TMP DP  RH WIND       PRES   REMARKS
REEDSBURG      PTCLDY    61  61  99 CALM      30.05S FOG
BARABOO/DELLS  FOG       60  58  94 CALM      30.05S VSB<1/4
LONE ROCK      CLOUDY    64  63  96 CALM      30.05F
MINERAL POINT  CLOUDY    66  61  82 CALM      30.06S
MADISON        CLOUDY    64  62  93 CALM      30.03F FOG
MIDDLETON      CLOUDY    65  64  99 CALM      30.05F
WATERTOWN      CLOUDY    62  62 100 CALM      30.04F FOG
MONROE         CLOUDY    63  63 100 CALM      30.05F
JANESVILLE     CLOUDY    63  63 100 CALM      30.04F FOG
$$

WIZ051-052-058>065-066-070>072-300800-
SOUTHEAST WISCONSIN

CITY           SKY/WX    TMP DP  RH WIND       PRES   REMARKS
MILWAUKEE      FOG       62  61  96 N3        30.04S VSB 1/2
WAUKESHA       CLOUDY    59  59 100 CALM      30.05F FOG
MILWAUKEE/TIMM CLOUDY    61  59  94 N5        30.05F FOG
RACINE         FOG       63  61  93 N3        30.05S VSB 1/2
BURLINGTON     CLOUDY    61  61  99 NW3       30.05S FOG
KENOSHA        FOG       63  62  97 N5        30.04S VSB 1/2
FOND DU LAC    FOG       58  57  97 CALM      30.04F VSB 1/4
SHEBOYGAN      FOG       57  56  96 CALM      30.04F VSB 1/4
WEST BEND      CLOUDY    61  59  94 CALM      30.04F FOG
JUNEAU         CLOUDY    62  61  98 CALM      30.05F FOG
$$

LSZ147-162-300800-
LAKE SUPERIOR

STATION/POSITION TIME  TEMP    WIND        PRES    WAVE
                       AIR SEA DIR/SP/G            HT/PER
                 (UTC) (F)     (DEG/KT/KT) (MB)    (FT/S)
W MID LAKE BUOY  0650   59 54  200/ 10/ 12 1014.1F   1
DEVILS ISLAND    0700   67     200/  9/ 13 1014.3F
PORT WING        0600   62     160/  2/  3 1015.2S
SAXON HARBOR     0600   66     210/  3/  6 1015.2
$$

LMZ867-665-643>646-300800-
LAKE MICHIGAN

STATION/POSITION TIME  TEMP    WIND        PRES    WAVE
                       AIR SEA DIR/SP/G            HT/PER
                 (UTC) (F)     (DEG/KT/KT) (MB)    (FT/S)
CHAMBERS ISLAND  0600   61     190/  3/  6 1017.3F
S GREEN BAY BUOY 0700   62 62  210/  4/  6 1018.6F
N MID LAKE BUOY  0650   63 65  210/  8/ 10 1016.8F   1
NORTHPORT PIER   0702   61     240/  2/  8 1016.9S
SISTER BAY       0619   60        CALM       N/A
ALGOMA LAKESHORE 0614             CALM       N/A
SHEBOYGAN LAKESH 0700   58      10/  3/  3 1017.5F
PORT WASHINGTON  0600   60     340/  2/  3 1017.9F
ATWATER BUOY     0700   53 50  330/  4/  6 1018.3F
MILWAUKEE LAKESH 0600   60      10/  5/  6   N/A
S MID LAKE BUOY  0650   68 68     CALM     1015.9F   1
KENOSHA   LAKESH 0700   63     340/  6/  7 1016.9S
$$

TC  - TEMPERATURE IN CELSIUS
VSB - VISIBILITY IN STATUTE MILES
WCI - WIND CHILL INDEX
HX  - HEAT INDEX



USA.gov is the U.S. government's official web portal to all federal, state and local government web resources and services.